Date,TemperatureHighF,TemperatureAvgF,TemperatureLowF,DewpointHighF,DewpointAvgF,DewpointLowF,HumidityHigh,HumidityAvg,HumidityLow,PressureMaxIn,PressureMinIn,WindSpeedMaxMPH,WindSpeedAvgMPH,GustSpeedMaxMPH,PrecipitationSumIn
2013-1-1,32.1,17.1,11.1,31.0,-13.6,-99.9,95,63,76,29.34,29.21,4,-284,9,0.00
2013-1-2,20.4,10.3,2.4,13.0,-18.2,-99.9,93,60,56,29.43,29.32,2,-231,3,0.00
2013-1-3,31.8,18.9,9.2,26.0,-9.0,-99.9,86,61,71,29.46,29.35,6,-224,14,0.00
2013-1-4,29.4,19.6,16.5,22.0,-5.2,-99.9,88,62,68,29.48,29.43,10,-198,14,0.00
2013-1-5,38.7,24.4,18.7,32.0,0.2,-99.9,94,67,67,29.49,29.29,5,-207,10,0.06
2013-1-6,35.6,21.4,24.7,33.0,-7.6,-99.9,91,64,83,30.36,29.17,9,-274,15,0.03
2013-1-7,34.5,25.7,14.1,27.0,22.0,12.0,95,86,74,30.47,30.24,6,1,11,0.00
2013-1-8,43.3,33.3,22.7,32.0,27.6,20.0,93,80,64,30.30,30.20,5,1,8,0.00
2013-1-9,47.6,40.7,30.2,40.0,35.1,28.0,94,81,64,30.51,30.17,8,2,13,0.05
2013-1-10,43.9,35.4,25.3,40.0,31.0,24.0,96,84,70,30.51,30.05,11,2,14,0.03
2013-1-11,58.1,52.6,44.5,54.0,49.2,41.0,97,88,78,30.05,29.81,9,2,14,0.66
2013-1-12,63.6,55.3,51.0,58.0,52.4,48.0,98,90,77,29.96,29.67,7,1,12,1.06
2013-1-13,60.8,40.0,23.8,60.0,38.8,21.0,98,95,88,30.18,29.61,8,2,15,1.22
2013-1-14,23.6,21.3,18.2,21.0,17.8,15.0,90,86,80,30.48,30.19,7,2,11,0.00
2013-1-15,31.1,25.5,18.6,24.0,20.5,17.0,92,81,68,30.43,30.12,8,2,12,0.00
2013-1-16,35.5,29.2,23.8,26.0,24.3,22.0,94,82,63,30.12,29.97,5,1,9,0.00
2013-1-17,39.1,31.5,20.2,32.0,25.5,15.0,91,79,65,30.42,30.09,7,2,13,0.00
2013-1-18,38.8,28.5,16.2,27.0,21.1,14.0,93,75,52,30.50,30.14,9,2,18,0.00
2013-1-19,52.4,42.7,34.9,38.0,30.8,26.0,75,63,51,30.14,29.84,14,4,18,0.00
2013-1-20,45.2,26.9,21.8,37.0,17.0,12.0,77,66,58,30.25,29.86,13,3,22,0.00
2013-1-21,21.9,15.3,8.1,14.0,7.5,-1.0,82,71,61,30.28,30.13,12,4,18,0.00
2013-1-22,15.2,9.4,3.5,3.0,0.3,-2.0,80,67,55,30.43,30.28,8,3,17,0.00
2013-1-23,21.6,16.3,8.1,15.0,7.6,1.0,82,69,51,30.39,30.13,8,1,19,0.00
2013-1-24,23.6,17.2,8.3,14.0,8.6,4.0,86,70,51,30.64,30.19,6,2,16,0.00
2013-1-25,27.1,22.7,18.2,21.0,16.3,9.0,89,77,63,30.46,30.05,6,1,11,0.00
2013-1-26,28.4,20.5,12.2,20.0,15.3,10.0,92,81,68,30.46,30.11,3,1,10,0.00
2013-1-27,36.5,27.2,13.9,35.0,22.7,12.0,95,83,72,30.46,30.09,9,2,13,0.33
2013-1-28,50.7,46.6,36.8,50.0,45.6,36.0,98,96,93,30.11,29.96,10,3,14,0.15
2013-1-29,62.5,56.5,50.6,58.0,54.4,50.0,98,92,86,29.98,29.43,10,4,18,0.00
2013-1-30,65.0,47.6,28.6,60.0,45.2,26.0,98,91,83,29.52,29.20,18,4,29,0.92
2013-1-31,28.1,21.9,10.9,25.0,16.7,5.0,91,80,73,30.10,29.54,13,5,21,0.00
2013-2-1,17.6,10.6,4.6,9.0,4.3,-1.0,82,75,66,30.43,30.10,13,3,22,0.00
2013-2-2,27.5,22.4,14.3,24.0,19.0,9.0,93,86,79,30.31,30.01,9,2,10,0.00
2013-2-3,23.7,18.0,12.1,20.0,14.1,9.0,90,84,76,30.12,29.97,9,2,13,0.00
2013-2-4,35.8,27.3,16.4,32.0,22.9,14.0,95,83,69,30.11,29.83,6,1,10,0.02
2013-2-5,34.4,28.4,17.1,32.0,25.3,16.0,95,88,76,30.03,29.84,6,1,10,0.00
2013-2-6,38.5,31.9,26.4,30.0,25.2,22.0,91,77,62,30.28,30.04,5,1,15,0.00
2013-2-7,53.2,40.7,30.3,41.0,33.1,27.0,94,76,53,30.21,29.78,7,1,9,0.18
2013-2-8,42.9,33.3,22.9,42.0,29.6,20.0,95,86,75,30.35,29.79,9,2,17,0.05
2013-2-9,39.2,27.9,16.2,28.0,22.0,15.0,96,80,59,30.44,30.21,5,1,11,0.00
2013-2-10,50.0,42.4,31.2,48.0,34.8,24.0,95,75,61,30.21,29.70,10,3,18,0.01
2013-2-11,50.2,39.6,30.7,48.0,33.0,27.0,94,78,66,30.02,29.66,14,5,22,0.00
2013-2-12,44.4,33.7,26.9,32.0,27.7,25.0,94,80,59,30.13,29.95,7,2,10,0.00
2013-2-13,42.2,32.1,24.2,31.0,27.1,22.0,94,82,64,29.95,29.78,6,1,7,0.00
2013-2-14,48.8,38.7,32.1,40.0,33.8,30.0,94,83,67,29.98,29.77,9,3,17,0.00
2013-2-15,36.4,29.2,16.4,31.0,25.6,15.0,96,86,72,30.17,29.96,6,1,15,0.00
2013-2-16,23.8,20.8,15.4,20.0,15.1,11.0,94,79,60,30.16,30.09,13,2,15,0.00
2013-2-17,31.1,20.4,9.9,18.0,12.1,7.0,92,72,47,30.26,30.16,3,1,9,0.00
2013-2-18,56.8,41.0,23.8,42.0,29.3,13.0,91,64,53,30.19,29.61,16,4,19,0.09
2013-2-19,45.1,26.8,20.6,43.0,22.3,14.0,94,83,74,30.12,29.56,16,6,25,0.02
2013-2-20,24.6,18.7,11.7,16.0,12.2,6.0,87,76,67,30.35,30.12,10,3,16,0.00
2013-2-21,29.2,24.7,19.6,24.0,19.4,16.0,88,80,72,30.38,30.07,15,3,17,0.00
2013-2-22,36.5,32.8,26.4,36.0,30.9,24.0,96,92,86,30.09,29.88,9,2,13,0.13
2013-2-23,36.5,30.2,24.0,29.0,24.9,21.0,91,81,70,30.00,29.93,5,1,10,0.01
2013-2-24,38.8,29.5,21.7,28.0,23.5,19.0,94,79,62,30.16,29.98,8,1,12,0.00
2013-2-25,44.3,33.1,20.8,30.0,25.6,19.0,95,76,54,30.19,29.94,8,2,14,0.00
2013-2-26,41.2,36.4,33.1,40.0,33.4,27.0,97,89,74,29.92,29.39,12,3,18,0.94
2013-2-27,41.3,35.4,31.3,40.0,33.8,30.0,96,94,89,29.67,29.46,5,2,13,0.08
2013-2-28,38.5,34.1,31.4,34.0,32.2,30.0,96,92,84,29.97,29.65,7,1,13,0.11
2013-3-1,34.2,31.6,27.9,31.0,28.7,22.0,96,89,78,30.09,29.95,6,1,8,0.04
2013-3-2,30.9,27.9,25.5,23.0,21.4,20.0,85,76,68,30.11,30.07,5,2,12,0.00
2013-3-3,31.8,27.6,18.5,26.0,21.9,16.0,91,80,64,30.11,30.06,9,2,12,0.00
2013-3-4,40.6,28.7,12.6,29.0,21.9,11.0,94,77,55,30.17,30.00,5,1,8,0.00
2013-3-5,36.3,33.1,27.7,32.0,30.6,27.0,96,90,80,30.02,29.64,8,2,12,0.04
2013-3-6,34.4,30.4,26.8,30.0,27.7,25.0,96,90,81,30.27,29.73,7,1,9,0.04
2013-3-7,40.1,33.4,28.7,31.0,29.1,26.0,94,84,63,30.40,30.26,6,1,8,0.29
2013-3-8,41.9,31.7,18.0,29.0,24.1,16.0,96,76,53,30.50,30.40,4,1,8,0.03
2013-3-9,49.4,40.5,29.4,38.0,31.9,25.0,85,72,60,30.40,29.97,8,2,14,0.00
2013-3-10,65.2,55.6,48.9,44.0,39.7,36.0,67,56,42,29.97,29.73,10,3,15,0.03
2013-3-11,57.8,47.2,34.0,51.0,42.9,31.0,94,86,55,29.82,29.54,8,3,18,0.23
2013-3-12,42.9,35.0,31.2,32.0,29.6,26.0,94,81,59,30.02,29.82,10,3,16,0.00
2013-3-13,32.3,28.7,25.2,30.0,23.2,20.0,93,80,66,30.32,30.00,6,2,18,0.03
2013-3-14,44.5,33.1,18.4,29.0,22.6,16.0,93,68,42,30.36,30.16,6,1,9,0.00
2013-3-15,51.7,38.2,29.3,41.0,34.2,28.0,96,86,63,30.16,29.79,3,1,7,0.01
2013-3-16,44.5,39.7,32.8,41.0,37.6,30.0,96,92,85,30.05,29.61,9,2,13,0.01
2013-3-17,37.8,33.1,29.3,30.0,26.9,23.0,89,78,67,30.18,30.02,9,3,14,0.00
2013-3-18,42.9,35.9,31.6,42.0,34.3,28.0,97,93,82,30.01,29.57,11,2,16,0.11
2013-3-19,39.2,31.9,25.3,34.0,21.7,18.0,89,67,49,30.10,29.81,16,5,24,0.00
2013-3-20,31.3,27.4,22.4,22.0,17.2,12.0,79,66,53,30.09,30.00,10,4,18,0.00
2013-3-21,33.1,24.8,15.8,20.0,15.8,11.0,86,69,53,30.05,29.98,7,2,13,0.00
2013-3-22,43.8,30.4,14.2,25.0,19.3,12.0,94,67,41,30.08,30.00,5,1,9,0.00
2013-3-23,47.8,36.4,25.0,28.0,23.7,20.0,85,62,40,30.08,29.92,4,1,10,0.00
2013-3-24,34.5,31.5,28.1,31.0,27.6,25.0,95,85,73,29.94,29.47,11,3,20,0.05
2013-3-25,35.3,31.3,28.0,33.0,29.7,27.0,96,93,88,29.98,29.50,9,3,14,0.19
2013-3-26,39.4,34.0,30.9,32.0,29.8,28.0,94,85,69,30.23,29.98,8,2,13,0.15
2013-3-27,42.7,34.8,25.1,31.0,26.9,23.0,92,74,55,30.31,30.23,7,1,11,0.00
2013-3-28,47.5,34.9,23.2,33.0,27.2,22.0,94,75,50,30.37,30.30,4,0,7,0.00
2013-3-29,55.7,39.5,24.6,38.0,30.9,23.0,96,74,47,30.33,30.22,6,1,8,0.00
2013-3-30,59.4,43.5,25.0,38.0,32.7,24.0,96,69,43,30.24,29.92,4,1,10,0.00
2013-3-31,60.1,48.8,41.5,46.0,41.4,36.0,93,77,51,29.91,29.71,6,2,13,0.11
2013-4-1,45.5,39.0,28.1,37.0,26.2,19.0,83,61,41,30.14,29.79,11,3,17,0.00
2013-4-2,44.2,33.2,19.8,25.0,20.0,15.0,92,62,36,30.29,30.14,9,1,14,0.00
2013-4-3,47.8,35.5,17.3,27.0,19.4,14.0,90,55,35,30.45,30.29,7,1,12,0.00
2013-4-4,60.5,42.9,28.8,29.0,22.3,18.0,69,47,24,30.35,29.98,4,1,8,0.00
2013-4-5,57.1,43.9,29.4,38.0,28.2,24.0,81,56,33,30.15,29.97,7,1,10,0.00
2013-4-6,67.1,51.9,36.3,40.0,32.1,23.0,65,48,34,30.16,29.81,10,3,15,0.00
2013-4-7,70.8,62.7,51.8,49.0,43.7,39.0,67,51,34,29.91,29.74,14,4,20,0.00
2013-4-8,72.4,61.7,50.1,59.0,52.9,41.0,92,74,62,29.92,29.79,12,2,22,0.00
2013-4-9,81.2,67.9,54.6,63.0,56.6,52.0,92,70,44,29.97,29.82,13,2,19,0.00
2013-4-10,80.7,68.5,52.8,68.0,61.6,52.0,97,79,61,29.86,29.70,14,3,18,1.04
2013-4-11,67.9,61.0,53.2,63.0,58.8,52.0,97,92,80,29.74,29.48,9,2,18,0.90
2013-4-12,52.6,42.4,37.3,52.0,37.0,32.0,96,81,66,29.89,29.51,10,3,15,0.11
2013-4-13,47.2,42.0,36.0,38.0,35.2,32.0,90,77,61,30.01,29.89,11,3,16,0.00
2013-4-14,69.5,54.1,38.6,51.0,42.3,34.0,87,67,46,30.04,29.81,6,2,11,0.00
2013-4-15,68.9,61.2,52.5,58.0,52.2,45.0,84,73,64,29.92,29.83,7,2,13,0.00
2013-4-16,61.8,54.4,49.6,56.0,51.1,47.0,96,89,77,30.17,29.84,7,1,10,1.16
2013-4-17,72.5,58.1,47.3,67.0,54.4,45.0,94,87,80,30.19,29.87,10,2,11,0.17
2013-4-18,77.7,65.3,57.2,67.0,61.5,56.0,97,88,68,29.88,29.53,12,2,25,0.44
2013-4-19,60.0,41.4,34.8,59.0,37.3,32.0,97,85,70,29.93,29.48,12,4,20,0.59
2013-4-20,48.2,38.9,31.8,34.0,30.1,26.0,92,72,51,30.42,29.93,10,3,16,0.00
2013-4-21,54.4,42.4,28.7,33.0,27.7,22.0,79,58,38,30.55,30.38,6,2,9,0.00
2013-4-22,68.4,52.6,34.3,43.0,36.9,31.0,89,59,35,30.38,30.09,5,1,8,0.00
2013-4-23,68.9,58.1,47.7,57.0,49.1,39.0,92,73,54,30.10,29.75,8,1,14,0.26
2013-4-24,58.0,43.8,37.6,55.0,40.3,33.0,96,87,71,30.20,29.73,9,2,19,1.05
2013-4-25,54.2,43.2,32.0,43.0,33.9,30.0,95,72,42,30.37,30.19,10,2,21,0.00
2013-4-26,63.5,47.5,29.7,43.0,36.5,29.0,97,69,44,30.44,30.32,4,1,9,0.00
2013-4-27,68.8,54.7,38.4,51.0,42.1,33.0,87,65,37,30.33,30.00,7,1,13,0.01
2013-4-28,63.5,57.0,53.6,60.0,55.1,51.0,97,93,85,30.00,29.79,4,1,10,0.52
2013-4-29,70.0,60.0,55.1,59.0,55.5,52.0,97,86,64,29.96,29.85,3,1,8,0.02
2013-4-30,79.8,66.0,51.1,64.0,56.3,49.0,93,73,54,30.00,29.89,10,2,11,0.00
2013-5-1,84.2,70.8,51.8,63.0,56.4,50.0,94,64,41,30.11,30.00,5,1,10,0.00
2013-5-2,77.1,68.3,58.7,60.0,56.0,54.0,84,66,50,30.14,30.02,6,1,13,0.00
2013-5-3,77.5,68.2,58.2,62.0,56.0,42.0,85,67,42,30.03,29.88,11,2,14,0.00
2013-5-4,70.9,63.6,57.3,54.0,46.7,42.0,85,56,41,29.96,29.90,6,2,12,0.00
2013-5-5,63.9,57.6,52.5,53.0,50.8,47.0,96,79,55,29.95,29.90,8,1,12,0.02
2013-5-6,69.3,61.4,54.4,58.0,53.4,48.0,89,76,61,29.94,29.88,10,2,12,0.00
2013-5-7,74.3,65.1,52.2,58.0,55.4,51.0,97,73,52,29.97,29.89,7,1,10,0.00
2013-5-8,80.3,65.2,49.7,62.0,56.4,49.0,98,76,42,29.98,29.91,4,1,9,0.14
2013-5-9,82.4,64.7,50.8,63.0,56.9,50.0,98,79,40,29.96,29.87,6,1,15,0.36
2013-5-10,69.7,62.4,49.3,64.0,59.0,47.0,97,89,73,29.86,29.75,7,2,13,0.06
2013-5-11,62.2,49.8,41.8,54.0,45.6,38.0,96,86,71,30.00,29.82,12,2,17,0.00
2013-5-12,55.6,45.1,34.9,39.0,34.4,29.0,96,69,40,30.11,30.00,10,2,14,0.00
2013-5-13,63.2,50.2,33.8,42.0,34.6,28.0,94,60,28,30.18,30.08,8,1,12,0.00
2013-5-14,84.9,66.1,45.6,62.0,50.1,37.0,76,57,43,30.09,29.75,10,2,17,0.00
2013-5-15,87.4,76.8,68.2,66.0,60.8,56.0,90,59,44,29.80,29.73,13,3,18,0.08
2013-5-16,83.6,72.2,63.2,67.0,63.0,59.0,96,75,47,29.92,29.76,4,0,7,0.03
2013-5-17,82.0,67.7,58.2,70.0,63.1,57.0,98,86,57,30.01,29.91,6,1,12,0.22
2013-5-18,80.5,69.9,62.2,67.0,63.8,61.0,97,82,62,30.03,29.93,5,1,9,0.00
2013-5-19,86.2,74.1,59.3,72.0,65.7,59.0,98,77,54,29.94,29.81,4,1,7,0.00
2013-5-20,88.4,77.5,69.9,74.0,69.1,66.0,95,76,55,29.89,29.77,8,2,13,0.00
2013-5-21,86.2,74.8,62.5,69.0,64.9,61.0,94,73,50,29.84,29.70,16,3,25,0.02
2013-5-22,77.8,68.6,61.0,68.0,63.8,60.0,96,85,64,29.74,29.65,8,2,15,0.36
2013-5-23,66.8,59.2,50.3,60.0,55.7,48.0,97,88,75,30.11,29.73,10,2,17,0.08
2013-5-24,65.6,54.0,43.4,49.0,43.8,38.0,97,72,38,30.33,30.11,8,2,11,0.00
2013-5-25,67.7,54.7,39.6,49.0,43.9,38.0,95,70,46,30.37,30.20,4,0,6,0.00
2013-5-26,71.9,60.8,43.9,51.0,46.8,40.0,93,62,42,30.28,30.14,7,1,9,0.00
2013-5-27,77.9,63.3,53.5,67.0,58.0,49.0,97,84,66,30.17,29.87,12,2,16,1.18
2013-5-28,81.9,73.0,63.4,72.0,66.3,62.0,98,80,64,29.92,29.84,11,2,17,0.00
2013-5-29,87.5,77.3,69.1,70.0,64.1,61.0,76,64,48,29.96,29.89,10,2,13,0.00
2013-5-30,87.9,77.2,68.9,71.0,67.3,62.0,89,72,54,30.02,29.90,10,2,19,0.33
2013-5-31,78.0,72.8,67.7,71.0,67.8,66.0,94,84,76,29.95,29.82,8,2,11,0.38
2013-6-1,78.3,70.9,64.0,70.0,66.4,63.0,97,86,73,29.86,29.71,6,2,16,0.60
2013-6-2,74.1,66.0,56.9,64.0,60.2,52.0,92,82,69,29.95,29.74,7,2,14,0.03
2013-6-3,69.8,57.1,42.8,53.0,47.2,41.0,96,72,40,30.06,29.94,4,1,11,0.00
2013-6-4,77.2,62.4,43.0,54.0,47.6,42.0,98,63,35,30.14,30.04,6,1,11,0.00
2013-6-5,83.6,69.9,54.6,58.0,52.0,47.0,77,55,33,30.07,29.83,3,1,9,0.00
2013-6-6,77.2,65.5,59.6,64.0,55.8,50.0,85,71,60,29.85,29.76,4,1,6,0.02
2013-6-7,75.0,65.3,56.5,61.0,56.8,55.0,94,75,55,29.86,29.79,4,1,8,0.00
2013-6-8,80.6,67.9,55.0,64.0,57.5,53.0,93,71,50,29.98,29.86,6,1,6,0.00
2013-6-9,84.2,72.2,61.7,67.0,63.2,59.0,92,75,47,29.99,29.81,4,1,10,0.03
2013-6-10,79.9,71.1,65.0,68.0,65.1,63.0,96,82,62,29.81,29.73,7,2,13,0.33
2013-6-11,86.6,72.8,62.1,70.0,66.0,61.0,98,81,48,29.91,29.80,7,1,9,0.15
2013-6-12,91.9,80.6,67.7,79.0,72.2,66.0,97,77,56,29.86,29.61,7,1,12,0.00
2013-6-13,77.8,69.7,60.3,68.0,62.0,54.0,97,78,51,29.92,29.56,8,2,17,1.82
2013-6-14,80.1,67.8,55.0,66.0,58.8,54.0,97,75,48,30.04,29.90,5,1,8,0.00
2013-6-15,83.8,69.7,56.0,66.0,61.6,55.0,98,77,53,30.07,29.90,3,1,8,0.00
2013-6-16,81.2,72.7,64.1,71.0,66.9,62.0,95,82,68,29.93,29.87,9,1,14,0.07
2013-6-17,89.1,76.4,66.8,75.0,67.6,64.0,97,77,46,29.92,29.82,3,0,6,0.00
2013-6-18,82.0,74.0,63.6,70.0,64.5,59.0,95,73,54,29.96,29.82,5,1,8,0.00
2013-6-19,82.1,70.3,58.4,61.0,57.8,56.0,93,67,42,30.08,29.97,7,1,7,0.00
2013-6-20,89.0,74.1,57.5,68.0,61.0,55.0,93,66,41,30.14,30.07,3,0,6,0.00
2013-6-21,90.4,77.3,62.3,69.0,63.4,58.0,90,65,40,30.15,29.99,4,1,10,0.00
2013-6-22,92.6,76.7,68.1,76.0,69.2,64.0,96,79,53,30.08,29.97,9,1,19,0.52
2013-6-23,90.1,74.9,64.9,74.0,68.7,64.0,98,83,56,30.07,29.97,12,1,15,0.03
2013-6-24,89.2,77.4,67.7,74.0,69.5,66.0,96,78,54,30.07,29.94,9,1,12,0.18
2013-6-25,91.8,80.0,68.9,78.0,71.9,66.0,95,78,56,29.96,29.80,6,2,13,0.01
2013-6-26,87.4,75.8,67.4,77.0,70.3,66.0,95,83,63,29.86,29.68,8,1,12,0.14
2013-6-27,86.1,75.8,68.4,74.0,70.3,67.0,97,83,64,29.72,29.62,4,1,11,0.00
2013-6-28,84.2,73.9,64.0,70.0,66.0,61.0,95,78,54,29.63,29.54,10,1,16,0.26
2013-6-29,79.3,66.6,60.2,69.0,64.0,60.0,98,91,65,29.64,29.52,3,0,5,0.23
2013-6-30,75.8,68.1,61.7,67.0,63.7,61.0,98,86,70,29.84,29.63,8,1,12,0.06
2013-7-1,71.8,66.9,63.0,65.0,62.1,59.0,91,84,76,29.93,29.82,6,2,12,0.00
2013-7-2,78.5,67.9,60.3,71.0,64.3,59.0,97,89,73,29.97,29.91,7,1,8,0.94
2013-7-3,83.4,72.8,61.6,71.0,66.4,61.0,98,82,61,30.05,29.96,6,1,11,0.00
2013-7-4,82.1,71.0,62.7,70.0,66.6,62.0,98,86,65,30.10,30.02,3,0,5,0.00
2013-7-5,84.3,73.8,64.5,72.0,68.1,64.0,98,83,62,30.09,30.01,3,0,5,0.00
2013-7-6,76.3,70.9,66.0,72.0,68.7,65.0,97,92,83,30.06,29.98,1,0,4,0.19
2013-7-7,83.9,73.6,64.2,74.0,68.6,63.0,97,85,68,30.05,29.97,2,0,7,0.00
2013-7-8,86.3,78.1,68.5,75.0,71.3,67.0,95,80,68,30.05,29.95,8,1,8,0.00
2013-7-9,91.4,81.9,73.1,79.0,74.5,71.0,92,79,65,29.99,29.88,6,1,9,0.00
2013-7-10,90.4,79.0,69.0,80.0,73.2,65.0,94,82,65,29.91,29.76,6,2,23,0.06
2013-7-11,79.1,70.3,58.8,64.0,59.7,57.0,93,71,49,30.00,29.90,6,1,11,0.00
2013-7-12,80.4,69.3,54.7,64.0,59.4,54.0,98,73,47,30.08,30.00,7,1,11,0.00
2013-7-13,85.7,73.9,60.5,68.0,63.9,59.0,94,73,53,30.11,30.04,4,1,9,0.00
2013-7-14,92.5,80.4,66.5,75.0,70.1,64.0,92,72,54,30.16,30.09,5,1,8,0.00
2013-7-15,93.1,82.5,71.8,75.0,72.6,70.0,96,74,53,30.24,30.16,6,1,8,0.00
2013-7-16,94.9,82.9,69.4,78.0,73.2,69.0,98,75,51,30.28,30.20,4,0,8,0.00
2013-7-17,93.0,82.3,70.5,77.0,73.5,70.0,98,77,53,30.28,30.13,5,1,6,0.00
2013-7-18,95.3,83.5,69.6,79.0,74.3,69.0,98,76,53,30.16,29.96,3,0,8,0.00
2013-7-19,94.5,83.6,72.6,79.0,74.2,71.0,95,75,53,29.98,29.78,6,1,13,0.00
2013-7-20,80.1,74.9,68.3,74.0,71.2,67.0,97,88,79,29.87,29.76,4,1,20,0.08
2013-7-21,89.8,76.9,65.2,75.0,69.7,65.0,98,80,55,29.93,29.83,2,0,5,0.01
2013-7-22,83.6,74.8,68.3,72.0,69.8,67.0,96,85,66,29.85,29.72,4,0,6,0.17
2013-7-23,88.0,76.0,62.4,76.0,69.0,58.0,98,80,59,29.82,29.68,6,2,12,0.00
2013-7-24,74.2,64.4,53.8,59.0,55.4,51.0,92,74,53,29.99,29.83,7,2,12,0.00
2013-7-25,78.9,65.8,50.2,59.0,55.1,49.0,98,72,46,30.07,29.99,6,1,8,0.00
2013-7-26,85.0,70.3,52.9,64.0,59.1,52.0,98,71,45,30.07,29.90,4,1,10,0.00
2013-7-27,79.5,69.3,56.9,68.0,60.7,52.0,96,76,49,29.90,29.78,9,2,13,0.03
2013-7-28,74.9,62.6,46.7,54.0,51.6,45.0,97,70,44,30.01,29.88,8,2,16,0.00
2013-7-29,80.1,66.6,52.8,61.0,55.9,52.0,97,71,46,30.15,30.01,5,1,10,0.00
2013-7-30,82.0,68.7,53.6,65.0,60.1,53.0,98,76,49,30.18,30.07,3,0,5,0.00
2013-7-31,75.8,69.5,65.0,71.0,66.7,62.0,96,91,78,30.07,29.89,3,0,5,0.21
2013-8-1,82.3,70.6,59.8,69.0,62.6,57.0,98,78,51,29.95,29.89,10,1,13,0.00
2013-8-2,87.1,69.5,53.7,67.0,61.0,53.0,98,77,50,29.95,29.88,5,1,15,0.00
2013-8-3,83.6,71.9,61.1,69.0,64.7,56.0,98,80,53,30.03,29.89,6,1,12,0.93
2013-8-4,78.4,66.2,52.6,62.0,56.6,52.0,97,74,49,30.13,30.03,9,1,9,0.00
2013-8-5,84.0,67.2,57.8,65.0,60.2,57.0,97,81,46,30.08,29.92,3,0,6,0.08
2013-8-6,82.6,71.3,60.6,72.0,65.9,59.0,95,84,70,29.93,29.85,4,0,6,0.00
2013-8-7,87.2,76.8,69.0,75.0,71.9,68.0,97,86,63,29.88,29.80,3,0,7,0.00
2013-8-8,84.7,74.2,68.7,76.0,71.5,68.0,98,91,73,29.91,29.84,4,0,7,0.82
2013-8-9,83.9,73.8,67.9,71.0,67.9,66.0,97,83,59,29.99,29.87,4,0,6,0.10
2013-8-10,87.9,75.8,65.6,71.0,67.8,65.0,97,78,54,30.06,29.99,4,0,6,0.00
2013-8-11,85.7,73.9,63.8,72.0,66.7,63.0,97,80,54,30.06,30.00,3,0,6,0.00
2013-8-12,88.6,74.6,61.4,73.0,66.8,61.0,98,78,53,30.03,29.82,4,1,7,0.00
2013-8-13,75.1,67.7,55.0,67.0,59.6,51.0,96,77,49,30.05,29.81,9,2,16,0.00
2013-8-14,71.3,58.3,44.0,53.0,49.8,43.0,97,76,50,30.17,30.05,6,1,8,0.00
2013-8-15,75.9,61.1,45.4,58.0,51.6,45.0,98,74,46,30.17,30.08,4,0,5,0.00
2013-8-16,77.3,64.5,53.2,60.0,55.3,52.0,97,75,46,30.15,30.09,5,1,7,0.00
2013-8-17,81.1,68.8,55.6,61.0,57.7,53.0,94,70,45,30.18,30.10,5,1,8,0.00
2013-8-18,84.8,71.1,55.8,67.0,60.4,55.0,97,72,42,30.15,30.05,4,0,6,0.00
2013-8-19,87.7,72.2,56.5,67.0,61.8,55.0,98,74,43,30.10,30.01,4,0,6,0.00
2013-8-20,89.4,75.0,59.8,69.0,64.3,59.0,97,72,45,30.12,30.03,3,0,7,0.00
2013-8-21,90.8,77.9,65.6,74.0,68.0,63.0,93,73,46,30.10,29.98,3,0,5,0.00
2013-8-22,82.6,72.6,66.2,73.0,68.8,65.0,97,88,71,30.05,29.95,5,0,9,0.29
2013-8-23,83.8,70.8,61.9,70.0,65.0,60.0,98,84,54,30.11,30.02,3,0,8,0.01
2013-8-24,87.0,71.6,54.2,63.0,58.9,53.0,98,69,39,30.24,30.12,3,0,7,0.00
2013-8-25,89.8,74.5,57.1,67.0,61.6,56.0,98,68,40,30.27,30.16,4,0,6,0.00
2013-8-26,90.2,74.7,59.3,75.0,66.8,58.0,95,78,53,30.19,30.02,6,1,10,0.00
2013-8-27,93.8,79.4,69.1,78.0,71.9,68.0,98,79,48,30.02,29.89,6,1,9,0.00
2013-8-28,91.4,80.4,72.7,77.0,73.0,70.0,93,79,60,29.92,29.84,6,1,12,0.00
2013-8-29,87.9,76.8,68.2,73.0,69.8,66.0,98,81,56,30.00,29.92,5,1,7,0.00
2013-8-30,93.7,79.0,63.5,73.0,69.1,63.0,98,75,46,29.95,29.75,4,1,10,0.00
2013-8-31,92.7,75.6,67.5,73.0,69.4,66.0,96,82,47,29.82,29.70,5,1,8,0.88
2013-9-1,86.1,74.5,66.8,74.0,70.0,66.0,97,86,65,29.77,29.70,3,0,7,0.00
2013-9-2,83.6,73.0,64.2,71.0,65.9,60.0,98,81,50,29.88,29.70,5,1,10,0.00
2013-9-3,75.3,63.0,49.5,59.0,55.6,49.0,97,79,55,30.02,29.88,8,1,10,0.00
2013-9-4,82.2,66.3,49.4,63.0,57.5,49.0,98,77,47,30.12,30.02,6,1,10,0.00
2013-9-5,84.3,69.2,55.0,67.0,59.6,47.0,98,74,52,30.17,30.08,5,1,7,0.00
2013-9-6,84.6,68.4,51.5,58.0,52.6,47.0,92,61,34,30.21,30.05,3,1,9,0.00
2013-9-7,89.6,72.8,56.7,69.0,61.6,53.0,93,70,44,30.05,29.89,7,1,9,0.02
2013-9-8,89.2,75.3,62.6,71.0,67.2,62.0,98,78,51,29.95,29.88,9,1,10,0.00
2013-9-9,94.7,79.1,66.4,73.0,69.0,64.0,95,74,47,29.96,29.86,6,1,10,0.00
2013-9-10,98.2,83.5,73.9,76.0,71.6,68.0,93,70,38,30.04,29.93,6,1,9,0.00
2013-9-11,97.0,81.3,70.5,75.0,68.2,64.0,94,68,36,30.06,29.93,6,1,12,0.00
2013-9-12,82.4,72.9,63.2,71.0,64.6,54.0,96,77,49,29.94,29.80,6,1,15,0.94
2013-9-13,66.8,58.8,50.0,56.0,48.3,44.0,93,70,46,30.09,29.92,8,2,13,0.00
2013-9-14,73.8,56.1,38.9,49.0,43.4,38.0,96,67,32,30.18,30.07,3,0,8,0.00
2013-9-15,79.6,60.3,43.5,57.0,49.8,42.0,96,73,36,30.11,29.97,6,1,12,0.12
2013-9-16,63.8,58.7,50.4,57.0,54.5,49.0,96,86,71,30.27,30.07,5,1,8,0.03
2013-9-17,74.9,61.2,47.8,55.0,51.1,46.0,94,72,45,30.32,30.14,6,1,9,0.00
2013-9-18,84.1,70.3,58.8,65.0,58.4,52.0,91,68,41,30.13,29.98,3,0,6,0.00
2013-9-19,82.5,71.6,65.0,72.0,67.9,64.0,97,88,67,30.01,29.87,7,1,8,1.22
2013-9-20,84.2,72.9,66.1,72.0,69.1,65.0,97,88,65,29.90,29.74,6,1,10,0.64
2013-9-21,72.1,62.0,48.3,66.0,54.7,45.0,97,79,47,29.88,29.71,6,2,13,0.18
2013-9-22,68.4,55.4,43.1,55.0,46.8,42.0,98,76,44,30.00,29.88,4,1,10,0.00
2013-9-23,70.9,57.7,42.8,50.0,47.3,41.0,96,71,45,30.10,30.00,7,1,12,0.00
2013-9-24,74.5,60.2,45.8,53.0,48.8,44.0,94,69,43,30.07,29.89,5,1,7,0.00
2013-9-25,77.0,63.2,51.4,56.0,50.8,48.0,88,66,38,29.91,29.84,5,1,7,0.00
2013-9-26,80.3,62.0,47.4,59.0,52.8,46.0,97,75,42,30.05,29.91,4,0,8,0.00
2013-9-27,81.2,65.2,48.9,57.0,50.9,47.0,94,64,33,30.14,30.05,5,0,5,0.00
2013-9-28,83.5,67.5,49.0,60.0,54.9,47.0,96,67,41,30.13,29.98,5,1,11,0.00
2013-9-29,64.9,62.1,58.5,64.0,59.6,56.0,97,92,81,29.99,29.93,3,0,7,0.82
2013-9-30,76.5,64.2,57.0,66.0,60.1,56.0,99,87,59,29.98,29.89,9,1,9,0.01
2013-10-1,77.5,65.6,58.1,65.0,61.5,57.0,98,87,64,30.02,29.95,5,1,10,0.00
2013-10-2,80.6,68.9,59.6,71.0,65.2,59.0,98,88,67,30.07,29.98,3,0,5,0.01
2013-10-3,82.6,71.6,63.8,70.0,66.1,63.0,98,84,59,30.01,29.91,5,1,11,0.00
2013-10-4,83.8,73.3,65.9,72.0,67.8,65.0,97,84,63,30.00,29.94,6,1,9,0.00
2013-10-5,77.3,70.8,66.5,72.0,68.5,65.0,97,92,82,29.98,29.83,4,1,10,0.69
2013-10-6,66.9,60.5,47.1,66.0,58.7,42.0,97,93,74,29.84,29.69,5,1,11,1.42
2013-10-7,60.9,49.7,42.4,50.0,45.2,41.0,97,85,61,30.13,29.78,10,1,13,0.02
2013-10-8,71.6,55.3,41.3,56.0,46.3,41.0,98,76,42,30.25,30.14,3,0,8,0.00
2013-10-9,74.7,56.3,40.9,54.0,47.1,40.0,98,75,40,30.23,30.13,3,0,7,0.00
2013-10-10,74.9,57.7,41.0,56.0,47.1,40.0,98,73,34,30.18,30.05,2,0,5,0.00
2013-10-11,81.0,60.1,42.7,55.0,49.5,42.0,98,73,37,30.09,29.98,3,0,6,0.00
2013-10-12,80.4,62.6,47.9,60.0,54.1,47.0,98,77,43,30.07,29.98,3,0,7,0.00
2013-10-13,70.7,62.0,50.3,62.0,49.9,42.0,91,67,36,30.31,30.08,6,1,9,0.00
2013-10-14,69.4,53.8,37.5,52.0,44.2,36.0,97,73,42,30.34,30.17,4,1,7,0.00
2013-10-15,67.9,58.9,49.4,63.0,56.0,47.0,97,90,78,30.18,29.87,8,1,10,0.08
2013-10-16,63.7,56.8,42.0,62.0,50.6,40.0,96,81,58,29.94,29.83,7,1,11,0.01
2013-10-17,52.6,44.8,37.2,50.0,42.9,36.0,98,93,82,29.95,29.86,9,1,12,0.11
2013-10-18,65.8,51.1,40.8,51.0,44.2,39.0,97,80,47,29.98,29.89,8,1,13,0.01
2013-10-19,53.1,44.2,39.3,44.0,39.7,36.0,96,85,59,29.94,29.85,7,1,12,0.28
2013-10-20,64.0,50.7,41.0,47.0,40.9,37.0,84,71,49,29.98,29.89,8,2,17,0.00
2013-10-21,61.7,51.1,40.0,49.0,43.9,31.0,91,77,61,29.96,29.85,7,2,13,0.00
2013-10-22,53.2,39.0,26.3,37.0,30.6,25.0,95,74,42,30.03,29.88,5,1,9,0.05
2013-10-23,47.6,38.4,33.2,41.0,34.0,30.0,97,85,59,30.04,29.82,8,1,15,0.29
2013-10-24,44.5,38.6,30.8,34.0,31.9,26.0,86,77,62,30.27,30.03,7,1,11,0.00
2013-10-25,50.2,36.2,25.8,34.0,27.5,24.0,94,73,46,30.44,30.25,7,1,10,0.00
2013-10-26,52.2,42.4,33.2,40.0,32.7,27.0,89,69,61,30.25,29.91,12,3,18,0.00
2013-10-27,56.5,40.1,27.3,40.0,32.7,26.0,97,78,47,30.11,30.03,4,0,9,0.00
2013-10-28,61.3,42.2,26.8,46.0,33.0,26.0,98,75,36,30.31,30.08,4,0,5,0.00
2013-10-29,58.8,47.2,36.7,45.0,40.5,35.0,96,79,55,30.36,30.19,3,0,5,0.01
2013-10-30,63.7,56.9,49.5,63.0,55.0,46.0,97,93,83,30.18,29.93,5,1,9,0.04
2013-10-31,64.6,61.5,56.6,63.0,59.6,55.0,96,93,88,29.93,29.22,11,3,21,1.33
2013-11-1,56.0,50.4,44.8,55.0,46.1,42.0,95,85,73,29.73,29.32,8,2,14,0.00
2013-11-2,52.9,46.4,43.2,45.0,42.2,39.0,94,85,66,30.09,29.72,6,2,15,0.00
2013-11-3,53.5,42.9,31.5,43.0,38.3,31.0,97,84,64,30.34,30.10,3,0,5,0.00
2013-11-4,55.7,47.0,39.4,43.0,39.4,35.0,88,75,58,30.36,30.26,6,1,14,0.00
2013-11-5,58.4,52.7,47.3,49.0,45.1,42.0,90,76,65,30.36,30.15,5,1,9,0.00
2013-11-6,59.3,53.5,42.2,55.0,48.0,40.0,94,82,64,30.14,29.88,13,3,15,0.18
2013-11-7,47.5,41.7,33.5,40.0,33.7,29.0,93,75,49,30.26,30.06,13,2,13,0.00
2013-11-8,50.0,38.2,26.4,37.0,31.2,25.0,97,78,54,30.36,30.17,3,0,6,0.00
2013-11-9,60.4,49.8,41.2,43.0,37.1,29.0,74,62,53,30.18,29.95,8,3,17,0.00
2013-11-10,47.7,39.9,29.1,39.0,32.8,28.0,95,77,59,30.33,30.06,6,2,13,0.00
2013-11-11,51.0,41.3,28.2,40.0,34.7,27.0,95,79,58,30.33,30.07,7,2,13,0.03
2013-11-12,35.5,28.3,21.1,27.0,23.5,19.0,93,82,63,30.64,30.34,7,1,11,0.02
2013-11-13,39.4,28.4,16.3,23.0,20.1,15.0,95,73,48,30.64,30.36,6,2,12,0.00
2013-11-14,52.9,40.1,29.2,27.0,23.3,21.0,74,54,30,30.35,30.09,8,3,15,0.00
2013-11-15,51.2,44.7,39.7,39.0,30.0,23.0,89,57,46,30.11,30.04,10,2,11,0.00
2013-11-16,59.5,51.6,41.2,57.0,48.8,39.0,94,90,83,30.06,29.76,9,2,16,0.00
2013-11-17,65.3,58.7,46.8,62.0,55.0,42.0,96,88,71,29.79,29.35,14,4,29,1.18
2013-11-18,47.7,42.2,31.4,42.0,35.2,27.0,87,77,61,30.20,29.74,13,4,21,0.00
2013-11-19,41.1,33.3,25.4,32.0,27.9,24.0,95,81,65,30.36,30.20,3,0,11,0.00
2013-11-20,47.9,37.7,26.6,35.0,30.2,24.0,91,75,59,30.35,30.20,5,1,10,0.00
2013-11-21,52.5,47.2,42.6,49.0,42.8,34.0,97,85,62,30.28,30.17,5,0,8,0.35
2013-11-22,50.0,43.8,31.5,49.0,41.8,30.0,97,93,84,30.41,30.14,9,1,16,0.17
2013-11-23,31.7,26.6,20.9,30.0,22.2,15.0,95,83,65,30.61,30.38,16,2,20,0.00
2013-11-24,27.4,19.7,13.6,19.0,14.3,11.0,92,80,61,30.72,30.52,4,1,9,0.00
2013-11-25,32.7,27.5,16.7,23.0,18.4,14.0,87,69,57,30.53,30.18,6,2,12,0.00
2013-11-26,35.7,32.8,29.9,30.0,26.9,22.0,89,79,67,30.20,29.96,5,1,13,0.00
2013-11-27,29.8,25.5,18.6,26.0,20.9,15.0,90,83,72,30.29,29.98,9,2,17,0.00
2013-11-28,34.8,25.4,18.4,20.0,17.3,14.0,86,73,54,30.46,30.25,11,1,14,0.00
2013-11-29,37.8,25.9,13.0,26.0,19.5,11.0,95,78,58,30.66,30.47,5,0,6,0.00
2013-11-30,49.6,36.9,26.1,33.0,27.6,22.0,83,70,52,30.52,30.14,8,1,11,0.00
2013-12-1,51.1,40.3,32.1,39.0,32.3,27.0,93,74,61,30.14,29.96,5,1,8,0.00
2013-12-2,45.9,38.2,32.5,38.0,34.4,31.0,94,86,72,29.96,29.79,5,1,7,0.05
2013-12-3,50.9,43.1,34.8,48.0,41.4,34.0,97,93,88,29.85,29.77,4,0,7,0.01
2013-12-4,60.6,52.6,43.9,57.0,51.1,43.0,98,94,87,29.82,29.64,6,1,10,0.00
2013-12-5,60.1,38.9,24.5,57.0,35.3,23.0,94,87,77,30.19,29.68,9,2,12,0.00
2013-12-6,29.2,26.2,23.5,25.0,23.2,20.0,94,88,80,30.45,30.18,4,0,7,0.00
2013-12-7,26.3,17.8,7.0,20.0,13.7,5.0,93,84,67,30.65,30.45,4,0,6,0.00
2013-12-8,29.5,23.8,16.1,29.0,20.5,14.0,96,87,78,30.57,30.01,10,2,12,0.00
2013-12-9,30.1,25.7,19.9,29.0,21.9,14.0,96,85,76,30.25,29.98,8,2,13,0.00
2013-12-10,26.6,19.5,9.3,16.0,12.5,5.0,87,75,59,30.35,30.14,9,2,15,0.00
2013-12-11,29.0,18.3,7.6,23.0,14.4,4.0,92,84,76,30.56,30.33,6,1,11,0.00
2013-12-12,20.3,11.4,-1.8,8.0,3.5,-5.0,90,72,56,30.58,30.36,8,1,13,0.01
2013-12-13,33.6,25.2,15.4,30.0,17.5,5.0,95,73,63,30.36,30.16,4,1,9,0.00
2013-12-14,35.6,31.6,24.4,34.0,30.4,22.0,96,95,91,30.16,29.74,5,1,11,0.06
2013-12-15,27.1,21.4,16.9,25.0,17.3,11.0,94,84,77,30.14,29.92,10,3,16,0.00
2013-12-16,27.6,21.6,15.8,27.0,19.1,13.0,96,90,81,30.16,30.01,6,1,6,0.00
2013-12-17,29.4,25.4,21.2,27.0,23.0,20.0,96,90,80,30.15,30.02,10,2,12,0.00
2013-12-18,34.0,25.7,14.2,23.0,18.7,11.0,89,75,65,30.27,30.01,9,2,13,0.00
2013-12-19,45.9,41.2,33.9,42.0,34.0,23.0,85,75,65,30.03,29.89,11,2,14,0.27
2013-12-20,57.9,51.7,45.9,57.0,49.4,42.0,97,92,85,29.89,29.73,9,3,12,0.58
2013-12-21,54.9,42.4,38.3,53.0,41.6,38.0,97,96,92,29.82,29.50,7,1,13,3.19
2013-12-22,50.3,40.0,32.3,50.0,38.6,31.0,99,94,91,30.06,29.39,11,2,15,0.12
2013-12-23,32.2,27.0,18.0,30.0,23.0,13.0,92,85,79,30.42,30.07,7,3,13,0.00
2013-12-24,19.9,12.9,6.3,14.0,8.6,3.0,92,83,75,30.59,30.42,8,2,15,0.00
2013-12-25,28.5,24.0,16.7,25.0,18.9,13.0,89,81,72,30.51,30.19,8,2,12,0.00
2013-12-26,36.3,30.2,22.8,28.0,23.3,16.0,92,76,58,30.37,30.16,11,3,16,0.00
2013-12-27,44.9,36.6,28.2,34.0,29.8,25.0,87,77,66,30.39,30.23,6,2,12,0.00
2013-12-28,50.7,41.0,34.6,38.0,33.8,31.0,88,76,61,30.22,29.97,8,2,12,0.00
2013-12-29,44.8,36.8,27.2,37.0,31.3,24.0,94,81,69,30.06,29.78,9,2,15,0.00
2013-12-30,27.1,21.4,17.7,24.0,17.2,14.0,92,84,73,30.29,30.07,4,1,10,0.00
2013-12-31,29.2,22.7,18.5,21.0,17.1,14.0,88,79,67,30.39,30.19,8,2,14,0.00
2014-1-1,35.6,26.3,20.7,29.0,22.6,17.0,90,86,77,30.31,30.07,5,1,8,0.00
2014-1-2,22.9,16.2,4.0,21.0,13.3,0.0,92,88,78,30.36,29.94,10,3,16,0.00